Regional Weather Roundup
Issued by NWS

Home | Current Version | Previous Version | Text Only | Print | Product List | Glossary Off
Versions: 1 2 3 4 5 6 7 8 9 10 11 12 13 14 15 16 17 18 19 20 21 22 23 24 25 26 27 28 29 30 31 32 33 34 35 36 37 38 39 40 41 42 43 44 45 46 47 48 49 50

000
ASUS43 KMKX 290011
RWRWI

WISCONSIN REGIONAL WEATHER ROUNDUP
NATIONAL WEATHER SERVICE MILWAUKEE/SULLIVAN WI
600 PM CST FRI NOV 28 2014

NOTE: "FAIR" INDICATES FEW OR NO CLOUDS BELOW 12,000 FEET WITH NO
SIGNIFICANT WEATHER AND/OR OBSTRUCTIONS TO VISIBILITY.

WIZ001-002-006>008-014>016-023>028-290100-
NORTHWEST WISCONSIN

CITY           SKY/WX    TMP DP  RH WIND       PRES   REMARKS
SUPERIOR ARPT  CLOUDY    19  13  77 E3        29.90F
6HR MIN TEMP:  15; 6HR MAX TEMP:  19;

ASHLAND        CLOUDY    18  12  77 CALM      29.93R
6HR MIN TEMP:  13; 6HR MAX TEMP:  18;

HAYWARD        CLOUDY    17  11  77 SE6       29.87R WCI   9
6HR MIN TEMP:  14; 6HR MAX TEMP:  17; 6HR PCP: TRACE;

SIREN          MOCLDY    18  12  78 E3        29.88S
6HR MIN TEMP:  16; 6HR MAX TEMP:  19;

CUMBERLAND     CLOUDY    18  12  79 E3        29.85R
RICE LAKE      CLOUDY    19  14  80 E6        29.87F WCI  11
6HR MIN TEMP:  16; 6HR MAX TEMP:  19;

CHETEK         MOCLDY    19  14  81 E5        29.85F WCI  12
6HR MIN TEMP:  16; 6HR MAX TEMP:  19;

LADYSMITH      FAIR      17  13  84 E5        29.88S WCI  10
6HR MIN TEMP:  16; 6HR MAX TEMP:  19;

EAU CLAIRE     MOCLDY    23  15  71 E5        29.86F WCI  17
6HR MIN TEMP:  18; 6HR MAX TEMP:  23; 6HR PCP: TRACE;

MENOMONIE      MOCLDY    23  17  78 E6        29.86F WCI  16
6HR MIN TEMP:  19; 6HR MAX TEMP:  24;

NEW RICHMOND   CLOUDY    21  15  78 E7        29.84S WCI  12
6HR MIN TEMP:  18; 6HR MAX TEMP:  21;

OSCEOLA        CLOUDY    21  16  79 E7        29.87F WCI  13
6HR MIN TEMP:  18; 6HR MAX TEMP:  21;

$$

WIZ003>005-009-010-017-018-290100-
NORTH CENTRAL WISCONSIN

CITY           SKY/WX    TMP DP  RH WIND       PRES   REMARKS
MANITOWISH WTR CLOUDY    13  11  89 SE3       29.86S
6HR MIN TEMP:  11; 6HR MAX TEMP:  14;

ARBOR VITAE    CLOUDY    17  14  88 SE3       29.86R
6HR MIN TEMP:  14; 6HR MAX TEMP:  17;

WOODRUFF       CLOUDY    17  14  88 SE3       29.86R
6HR MIN TEMP:  14; 6HR MAX TEMP:  17;

RHINELANDER    CLOUDY    14  10  84 SE7       29.87F WCI   4
6HR MIN TEMP:  11; 6HR MAX TEMP:  15; 6HR PCP: TRACE;

EAGLE RIVER    PTCLDY    13   8  83 CALM      29.87S
6HR MIN TEMP:  12; 6HR MAX TEMP:  15;

LAND O LAKES   CLOUDY    14  10  85 SE6       29.87F WCI   5
6HR MIN TEMP:  13; 6HR MAX TEMP:  15;

PHILLIPS       CLOUDY    15  11  85 SE6       29.85F WCI   6
6HR MIN TEMP:  12; 6HR MAX TEMP:  15;

TOMAHAWK       CLOUDY    16  13  87 CALM      29.88F
6HR MIN TEMP:  13; 6HR MAX TEMP:  16;

MEDFORD        MOCLDY    17  13  87 SE5       29.86S WCI  10
6HR MIN TEMP:  14; 6HR MAX TEMP:  17;

MERRILL        CLOUDY    17  13  86 SE6       29.88F WCI   8
6HR MIN TEMP:  13; 6HR MAX TEMP:  17;

$$

WIZ029-030-035-036-043>047-290100-
CENTRAL WISCONSIN

CITY           SKY/WX    TMP DP  RH WIND       PRES   REMARKS
WAUSAU         CLOUDY    18  14  84 E8        29.88F WCI   8
6HR MIN TEMP:  14; 6HR MAX TEMP:  18; 6HR PCP: TRACE;

MOSINEE        CLOUDY    18  18 100 E6        29.90F WCI   9
MARSHFIELD     FLURRIES  21  15  78 SE10      29.87F WCI  10
6HR MIN TEMP:  17; 6HR MAX TEMP:  21; 6HR PCP: TRACE;

STEVENS POINT  CLOUDY    18  15  87 E6        29.91F WCI  10
6HR MIN TEMP:  15; 6HR MAX TEMP:  18;

WAUPACA        CLOUDY    25  19  80 NE3       29.93F
6HR MIN TEMP:  20; 6HR MAX TEMP:  25;

WAUTOMA        MIX PCPN  24  19  81 CALM      29.94R
6HR MIN TEMP:  21; 6HR MAX TEMP:  26; 6HR PCP: TRACE;

WISC RAPIDS    MIX PCPN  23  16  74 SE6       29.92R WCI  16
6HR MIN TEMP:  18; 6HR MAX TEMP:  23; 6HR PCP: TRACE;

CAMP DOUGLAS   MOCLDY    25  25 100 E8        29.88F WCI  16
6HR MIN TEMP:  24; 6HR MAX TEMP:  26; 6HR PCP: TRACE;

$$

WIZ011>013-019>022-031-037>040-048>050-290100-
NORTHEAST WISCONSIN

CITY           SKY/WX    TMP DP  RH WIND       PRES   REMARKS
ANTIGO         LGT SNOW  14  12  90 SE6       29.90S WCI   5
6HR MIN TEMP:  11; 6HR MAX TEMP:  14;

SHAWANO        LGT SNOW  21  18  88 CALM      29.96R
6HR MIN TEMP:  18; 6HR MAX TEMP:  22; 6HR PCP:  0.01;

OCONTO         CLOUDY    21  21  98 CALM      29.95F
6HR MIN TEMP:  18; 6HR MAX TEMP:  22; 6HR PCP:  0.02;

STURGEON BAY   CLOUDY    23  19  86 CALM      29.94F
6HR MIN TEMP:  18; 6HR MAX TEMP:  23;

GREEN BAY      LGT SNOW  25  23  92 MISG      29.96S FOG
6HR MIN TEMP:  19; 6HR MAX TEMP:  25; 6HR PCP:  0.06;

MANITOWOC      LGT SNOW  29  25  85 SW14      29.96S FOG     WCI  18
6HR MIN TEMP:  23; 6HR MAX TEMP:  32; 6HR PCP: TRACE;

APPLETON       CLOUDY    25  18  74 CALM      29.95R
CLINTONVILLE   CLOUDY    21  19  93 NE3       29.94S
OSHKOSH        CLOUDY    26  19  74 MISG      29.94R
6HR MIN TEMP:  20; 6HR MAX TEMP:  26;

$$

WIZ032>034-041-042-053>061-290100-
SOUTHWEST WISCONSIN

CITY           SKY/WX    TMP DP  RH WIND       PRES   REMARKS
LA CROSSE      MOCLDY    28  19  69 CALM      29.89S
6HR MIN TEMP:  25; 6HR MAX TEMP:  29; 6HR PCP:  0.01;

SPARTA         MOCLDY    26  21  83 E3        29.89F
6HR MIN TEMP:  25; 6HR MAX TEMP:  28;

VIROQUA        CLOUDY    24  20  85 SE9       29.84F WCI  14
6HR MIN TEMP:  24; 6HR MAX TEMP:  26;

BOSCOBEL       CLOUDY    27  20  75 CALM      29.91S
6HR MIN TEMP:  26; 6HR MAX TEMP:  28;

PRAIRIE DU CHI CLOUDY    27  20  75 E3        29.88S
6HR MIN TEMP:  26; 6HR MAX TEMP:  29;

PLATTEVILLE    CLOUDY    28  25  88 CALM      29.89R
6HR MIN TEMP:  24; 6HR MAX TEMP:  28;

$$

WIZ056-057-062-063-064-067-068-290100-
SOUTH CENTRAL WISCONSIN

CITY           SKY/WX    TMP DP  RH WIND       PRES   REMARKS
REEDSBURG      CLOUDY    25  21  86 CALM      29.89F
6HR MIN TEMP:  23; 6HR MAX TEMP:  26; 6HR PCP:  0.01;

BARABOO/DELLS  CLOUDY    25  21  84 S3        29.90R
6HR MIN TEMP:  24; 6HR MAX TEMP:  26;

LONE ROCK      CLOUDY    27  20  75 E7        29.90S WCI  19
6HR MIN TEMP:  27; 6HR MAX TEMP:  30;

MINERAL POINT  CLOUDY    30  27  86 SE6       29.87S WCI  24
MADISON        CLOUDY    27  21  78 SE9       29.89F WCI  18
6HR MIN TEMP:  23; 6HR MAX TEMP:  27; 6HR PCP: TRACE;

MIDDLETON      CLOUDY    29  24  80 CALM      29.90S
6HR MIN TEMP:  27; 6HR MAX TEMP:  29;

WATERTOWN      MIX PCPN  27  23  85 SE8       29.89F WCI  19
6HR MIN TEMP:  23; 6HR MAX TEMP:  27;

MONROE         CLOUDY    30  28  93 SE9       29.87F WCI  22
JANESVILLE     CLOUDY    32  28  86 S8        29.91F WCI  25
$$

WIZ051-052-058>065-066-070>072-290100-
SOUTHEAST WISCONSIN

CITY           SKY/WX    TMP DP  RH WIND       PRES   REMARKS
MILWAUKEE      MOCLDY    30  20  66 S8        29.94F WCI  22
6HR MIN TEMP:  25; 6HR MAX TEMP:  30;

WAUKESHA       CLOUDY    27  19  74 SE12      29.98S WCI  16
MILWAUKEE/TIMM CLOUDY    28  19  69 S9        29.94F WCI  20
RACINE         MOCLDY    31  23  72 S14G21    29.96F WCI  21
6HR MIN TEMP:  27; 6HR MAX TEMP:  31;

BURLINGTON     MOCLDY    28  24  84 S8        29.92F WCI  20
6HR MIN TEMP:  23; 6HR MAX TEMP:  28;

KENOSHA        CLOUDY    30  24  78 S10       29.95F WCI  21
6HR MIN TEMP:  25; 6HR MAX TEMP:  30;

FOND DU LAC    CLOUDY    27  18  69 SE6       29.92F WCI  20
6HR MIN TEMP:  21; 6HR MAX TEMP:  27;

SHEBOYGAN      CLOUDY    28  21  75 S8        29.95S WCI  20
6HR MIN TEMP:  22; 6HR MAX TEMP:  30;

WEST BEND      CLOUDY    28  19  69 SE3       29.94S
JUNEAU         MIX PCPN  26  21  82 SE8       29.92S WCI  18
6HR MIN TEMP:  22; 6HR MAX TEMP:  26;

$$

LSZ147-162-290100-
LAKE SUPERIOR

STATION/POSITION TIME  TEMP    WIND        PRES    WAVE
                       AIR SEA DIR/SP/G            HT/PER
                 (UTC) (F)     (DEG/KT/KT) (MB)    (FT/S)
DEVILS ISLAND    0000   21     160/  6/  7 1014.4S
PORT WING        2340   18     140/  3/  5 1013.5R
SAXON HARBOR     2340   19        CALM     1013.2S
$$

LMZ867-665-643>646-290100-
LAKE MICHIGAN

STATION/POSITION TIME  TEMP    WIND        PRES    WAVE


USA.gov is the U.S. government's official web portal to all federal, state and local government web resources and services.